^^
Saratoga-Weather Station Historical Data
Daily Summary for August 19, 2022 Units:  English    Metric   Both
Daily Weekly Monthly Yearly Custom
  High: Low: Average:
Temperature: 79.3 °F 64.8 °F 72.3 °F
Dew Point: 63.7 °F 54.5 °F 61 °F
Humidity: 83% 45% 68%
Wind Speed: 16.1mph 0mph 3.8mph
Wind Gust: 18mph - -
Wind- - West
Pressure: 30 in 29.9 in -
Precipitation: 0 in    
Historical Graphs
 
 
Tabular Data for August 19, 2022
Time Temperature Dew Point Pressure Wind Wind Speed Wind Gust Humidity Rainfall Rate (Hourly) solar
00:04 71.1 °F 59.5 °F 29.9 in Calm     67% 0 in 0 W/m2
00:09 70.9 °F 59.4 °F 29.9 in Calm     67% 0 in 0 W/m2
00:14 70.5 °F 59.4 °F 29.9 in Calm     68% 0 in 0 W/m2
00:19 70.5 °F 59.4 °F 29.9 in Calm     68% 0 in 0 W/m2
00:24 70.3 °F 59.7 °F 29.9 in Calm     69% 0 in 0 W/m2
00:29 70.3 °F 59.4 °F 29.9 in South 0.9 mph 1 mph 68% 0 in 0 W/m2
00:34 70.2 °F 59.5 °F 29.9 in South 0.9 mph 1 mph 69% 0 in 0 W/m2
00:39 70 °F 59.4 °F 29.9 in WNW 2 mph 3 mph 69% 0 in 0 W/m2
00:44 70 °F 59 °F 29.9 in WSW 2.9 mph 3 mph 68% 0 in 0 W/m2
00:49 70 °F 59 °F 29.9 in WNW 0.9 mph 2 mph 68% 0 in 0 W/m2
00:54 70.2 °F 59.2 °F 29.9 in WNW 0.9 mph 2 mph 68% 0 in 0 W/m2
00:59 70.2 °F 59.2 °F 29.9 in West 0.9 mph 2 mph 68% 0 in 0 W/m2
01:04 70 °F 59 °F 29.9 in NNE 0.9 mph 4 mph 68% 0 in 0 W/m2
01:09 70 °F 59 °F 29.9 in Calm   2 mph 68% 0 in 0 W/m2
01:14 70 °F 59 °F 29.9 in West 0.9 mph 4 mph 68% 0 in 0 W/m2
01:19 69.6 °F 59 °F 29.9 in West 2 mph 2 mph 69% 0 in 0 W/m2
01:24 69.4 °F 58.8 °F 29.9 in WSW 2 mph 3 mph 69% 0 in 0 W/m2
01:29 69.3 °F 59 °F 29.9 in WSW 2.9 mph 3 mph 70% 0 in 0 W/m2
01:34 69.3 °F 59 °F 29.9 in West 2.9 mph 4 mph 70% 0 in 0 W/m2
01:39 69.1 °F 58.8 °F 29.9 in West 2 mph 4 mph 70% 0 in 0 W/m2
01:44 68.9 °F 58.6 °F 29.9 in West 2 mph 3 mph 70% 0 in 0 W/m2
01:49 68.7 °F 58.5 °F 29.9 in WSW 2.9 mph 4 mph 70% 0 in 0 W/m2
01:54 68.7 °F 59 °F 29.9 in West 2 mph 4 mph 71% 0 in 0 W/m2
01:59 68.7 °F 59 °F 29.9 in WNW 2 mph 4 mph 71% 0 in 0 W/m2
02:04 68.7 °F 59 °F 29.9 in West 0.9 mph 3 mph 71% 0 in 0 W/m2
02:09 68.7 °F 59 °F 29.9 in West 2 mph 3 mph 71% 0 in 0 W/m2
02:14 68.5 °F 58.8 °F 29.9 in WSW 2.9 mph 7 mph 71% 0 in 0 W/m2
02:19 68.5 °F 58.8 °F 29.9 in WSW 2.9 mph 4 mph 71% 0 in 0 W/m2
02:24 68.5 °F 58.8 °F 29.9 in West 2.9 mph 3 mph 71% 0 in 0 W/m2
02:29 68.4 °F 58.6 °F 29.9 in WSW 2.9 mph 4 mph 71% 0 in 0 W/m2
02:34 68.4 °F 59 °F 29.9 in West 0.9 mph 3 mph 72% 0 in 0 W/m2
02:39 68.5 °F 59.2 °F 29.9 in West 0.9 mph 2 mph 72% 0 in 0 W/m2
02:44 68.5 °F 59.2 °F 29.9 in West 2 mph 4 mph 72% 0 in 0 W/m2
02:49 68.4 °F 59 °F 29.9 in West 2 mph 2 mph 72% 0 in 0 W/m2
02:54 68.4 °F 59 °F 29.9 in West 0.9 mph 3 mph 72% 0 in 0 W/m2
02:59 68.4 °F 59 °F 29.9 in Calm   2 mph 72% 0 in 0 W/m2
03:04 68.4 °F 59 °F 29.9 in Calm   1 mph 72% 0 in 0 W/m2
03:09 68.4 °F 59 °F 29.9 in Calm   1 mph 72% 0 in 0 W/m2
03:14 68.4 °F 59 °F 29.9 in West 0.9 mph 2 mph 72% 0 in 0 W/m2
03:19 68.2 °F 58.8 °F 29.9 in West 0.9 mph 2 mph 72% 0 in 0 W/m2
03:24 68.2 °F 58.8 °F 29.9 in West 0.9 mph 1 mph 72% 0 in 0 W/m2
03:29 68 °F 58.6 °F 29.9 in Calm   2 mph 72% 0 in 0 W/m2
03:34 68 °F 59 °F 29.9 in Calm     73% 0 in 0 W/m2
03:39 67.8 °F 58.8 °F 29.9 in West 0.9 mph 2 mph 73% 0 in 0 W/m2
03:44 67.8 °F 58.8 °F 29.9 in West 2 mph 4 mph 73% 0 in 0 W/m2
03:49 67.8 °F 58.8 °F 29.9 in West 2 mph 3 mph 73% 0 in 0 W/m2
03:54 67.8 °F 58.8 °F 29.9 in West 2 mph 4 mph 73% 0 in 0 W/m2
03:59 67.8 °F 58.8 °F 29.9 in West 2 mph 3 mph 73% 0 in 0 W/m2
04:04 67.8 °F 58.8 °F 29.9 in West 0.9 mph 4 mph 73% 0 in 0 W/m2
04:09 67.8 °F 58.8 °F 29.9 in WSW 2 mph 3 mph 73% 0 in 0 W/m2
04:14 67.8 °F 58.8 °F 29.9 in West 0.9 mph 2 mph 73% 0 in 0 W/m2
04:19 67.6 °F 59 °F 29.9 in West 2 mph 3 mph 74% 0 in 0 W/m2
04:24 67.6 °F 59 °F 29.9 in West 0.9 mph 2 mph 74% 0 in 0 W/m2
04:29 67.5 °F 58.8 °F 29.9 in West 0.9 mph 2 mph 74% 0 in 0 W/m2
04:34 67.5 °F 58.8 °F 29.9 in Calm     74% 0 in 0 W/m2
04:39 67.3 °F 59 °F 29.9 in Calm   2 mph 75% 0 in 0 W/m2
04:44 67.1 °F 58.8 °F 29.9 in West 0.9 mph 1 mph 75% 0 in 0 W/m2
04:49 66.9 °F 58.8 °F 29.9 in West 0.9 mph 1 mph 75% 0 in 0 W/m2
04:54 66.7 °F 59 °F 29.9 in Calm   1 mph 76% 0 in 0 W/m2
04:59 66.6 °F 59.2 °F 29.9 in Calm   1 mph 77% 0 in 0 W/m2
05:04 66.4 °F 59 °F 29.9 in Calm     77% 0 in 0 W/m2
05:09 66.2 °F 58.8 °F 29.9 in Calm     77% 0 in 0 W/m2
05:14 66 °F 59 °F 29.9 in Calm     78% 0 in 0 W/m2
05:19 65.8 °F 58.8 °F 29.9 in Calm     78% 0 in 0 W/m2
05:24 65.8 °F 58.8 °F 29.9 in Calm     78% 0 in 0 W/m2
05:29 65.7 °F 59 °F 29.9 in Calm     79% 0 in 0 W/m2
05:34 65.5 °F 58.8 °F 29.9 in Calm     79% 0 in 0 W/m2
05:39 65.5 °F 59.2 °F 29.9 in Calm     80% 0 in 0 W/m2
05:44 65.3 °F 59 °F 29.9 in West 0.9 mph 1 mph 80% 0 in 0 W/m2
05:49 65.1 °F 58.8 °F 29.9 in Calm   1 mph 80% 0 in 0 W/m2
05:54 65.3 °F 59 °F 29.9 in Calm   1 mph 80% 0 in 0 W/m2
05:59 65.5 °F 59.2 °F 29.9 in Calm     80% 0 in 0 W/m2
06:04 65.5 °F 59.2 °F 29.9 in Calm     80% 0 in 0 W/m2
06:09 65.7 °F 59.4 °F 29.9 in Calm   1 mph 80% 0 in 0 W/m2
06:14 65.7 °F 59.4 °F 29.9 in Calm     80% 0 in 0 W/m2
06:19 65.7 °F 59.4 °F 29.9 in Calm   1 mph 80% 0 in 0 W/m2
06:29 65.7 °F 59.4 °F 29.9 in Calm   1 mph 80% 0 in 0 W/m2
06:34 65.7 °F 59.4 °F 29.9 in Calm     80% 0 in 0 W/m2
06:40 65.5 °F 59.2 °F 29.9 in Calm     80% 0 in 0 W/m2
06:45 65.3 °F 59 °F 29.9 in Calm     80% 0 in 5 W/m2
06:50 65.1 °F 59.2 °F 29.9 in West 0.9 mph 2 mph 81% 0 in 9 W/m2
07:00 64.9 °F 59 °F 29.9 in Calm     81% 0 in 19 W/m2
07:05 64.8 °F 59.2 °F 29.9 in Calm     82% 0 in 25 W/m2
07:10 64.8 °F 59.2 °F 29.9 in Calm     82% 0 in 30 W/m2
07:15 64.8 °F 59.2 °F 29.9 in Calm     82% 0 in 37 W/m2
07:20 64.8 °F 59.5 °F 29.9 in Calm     83% 0 in 47 W/m2
07:25 64.8 °F 59.5 °F 29.9 in Calm     83% 0 in 58 W/m2
07:30 64.9 °F 59.7 °F 29.9 in West 0.9 mph 2 mph 83% 0 in 63 W/m2
07:35 65.1 °F 59.5 °F 29.9 in Calm     82% 0 in 63 W/m2
07:40 65.3 °F 59.7 °F 29.9 in Calm   2 mph 82% 0 in 62 W/m2
07:45 65.7 °F 60.1 °F 29.9 in West 0.9 mph 2 mph 82% 0 in 65 W/m2
07:50 65.8 °F 59.9 °F 29.9 in Calm   1 mph 81% 0 in 65 W/m2
07:55 66 °F 60.1 °F 29.9 in West 0.9 mph 1 mph 81% 0 in 70 W/m2
08:00 66.4 °F 60.4 °F 29.9 in Calm     81% 0 in 86 W/m2
08:05 66.6 °F 60.3 °F 29.9 in Calm   1 mph 80% 0 in 105 W/m2
08:10 66.9 °F 60.3 °F 29.9 in WNW 2 mph 2 mph 79% 0 in 125 W/m2
08:15 67.5 °F 60.4 °F 29.9 in WNW 2 mph 4 mph 78% 0 in 135 W/m2
08:20 67.8 °F 60.6 °F 29.9 in West 0.9 mph 3 mph 78% 0 in 146 W/m2
08:25 68.5 °F 61 °F 29.9 in WSW 7 mph 7 mph 77% 0 in 156 W/m2
08:30 68.7 °F 60.8 °F 29.9 in NW 4 mph 4 mph 76% 0 in 165 W/m2
08:35 69.4 °F 61.2 °F 29.9 in WNW 2.9 mph 3 mph 75% 0 in 174 W/m2
08:40 70 °F 61.3 °F 29.9 in West 2.9 mph 5 mph 74% 0 in 178 W/m2
08:45 70.2 °F 61.5 °F 29.9 in WNW 2 mph 3 mph 74% 0 in 176 W/m2
08:50 70.5 °F 61 °F 29.9 in NW 4 mph 6 mph 72% 0 in 174 W/m2
08:55 71.1 °F 61.5 °F 29.9 in WSW 2.9 mph 6 mph 72% 0 in 174 W/m2
09:00 71.2 °F 61.7 °F 29.9 in WNW 2.9 mph 3 mph 72% 0 in 172 W/m2
09:05 71.6 °F 61.7 °F 29.9 in WNW 2.9 mph 5 mph 71% 0 in 171 W/m2
09:10 72 °F 61.7 °F 29.9 in WNW 0.9 mph 3 mph 70% 0 in 163 W/m2
09:15 72.1 °F 61.9 °F 29.9 in WNW 2 mph 3 mph 70% 0 in 153 W/m2
09:20 72.3 °F 62.1 °F 29.9 in WNW 4 mph 4 mph 70% 0 in 158 W/m2
09:25 72.7 °F 61.9 °F 29.9 in WNW 0.9 mph 4 mph 69% 0 in 162 W/m2
09:30 72.9 °F 62.1 °F 29.9 in WNW 0.9 mph 4 mph 69% 0 in 229 W/m2
09:35 73 °F 62.2 °F 29.9 in West 0.9 mph 6 mph 69% 0 in 144 W/m2
09:41 73.2 °F 62.1 °F 29.9 in WNW 0.9 mph 3 mph 68% 0 in 163 W/m2
09:46 73.6 °F 61.9 °F 29.9 in West 2 mph 5 mph 67% 0 in 146 W/m2
09:51 73.6 °F 61.9 °F 29.9 in SW 2.9 mph 4 mph 67% 0 in 139 W/m2
09:56 73.6 °F 61.9 °F 29.9 in NW 2.9 mph 4 mph 67% 0 in 134 W/m2
10:01 73.6 °F 61.5 °F 29.9 in WSW 4 mph 5 mph 66% 0 in 142 W/m2
10:06 73.8 °F 61.7 °F 29.9 in West 2 mph 4 mph 66% 0 in 311 W/m2
10:11 74.1 °F 62.1 °F 29.9 in NNW 2 mph 8 mph 66% 0 in 374 W/m2
10:16 74.5 °F 61.9 °F 29.9 in West 0.9 mph 5 mph 65% 0 in 355 W/m2
10:21 74.7 °F 62.1 °F 29.9 in NW 2.9 mph 6 mph 65% 0 in 396 W/m2
10:26 74.8 °F 62.2 °F 29.9 in Calm   4 mph 65% 0 in 415 W/m2
10:31 75.4 °F 62.4 °F 29.9 in West 2.9 mph 6 mph 64% 0 in 452 W/m2
10:36 75.6 °F 62.1 °F 29.9 in NW 4 mph 7 mph 63% 0 in 475 W/m2
10:41 75.4 °F 61.9 °F 29.9 in WNW 4 mph 8 mph 63% 0 in 464 W/m2
10:46 75.4 °F 61.9 °F 29.9 in NW 0.9 mph 5 mph 63% 0 in 383 W/m2
10:51 75.4 °F 62.4 °F 29.9 in West 6 mph 6 mph 64% 0 in 517 W/m2
10:56 75.7 °F 62.2 °F 29.9 in WNW 4 mph 5 mph 63% 0 in 538 W/m2
11:01 76.1 °F 62.1 °F 29.9 in SW 2.9 mph 8 mph 62% 0 in 548 W/m2
11:06 76.3 °F 62.2 °F 29.9 in West 4 mph 6 mph 62% 0 in 594 W/m2
11:11 76.3 °F 62.8 °F 29.9 in WNW 2 mph 4 mph 63% 0 in 598 W/m2
11:16 76.1 °F 62.6 °F 29.9 in West 8.1 mph 10 mph 63% 0 in 610 W/m2
11:21 76.1 °F 62.6 °F 29.9 in NW 2.9 mph 9 mph 63% 0 in 610 W/m2
11:26 76.3 °F 63.1 °F 29.9 in WNW 10.1 mph 10 mph 64% 0 in 652 W/m2
11:31 76.5 °F 62.1 °F 29.9 in SSW 4 mph 13 mph 61% 0 in 666 W/m2
11:36 76.5 °F 62.4 °F 29.9 in NW 2 mph 9 mph 62% 0 in 673 W/m2
11:41 76.8 °F 62.8 °F 29.9 in WSW 6.9 mph 12 mph 62% 0 in 675 W/m2
11:46 76.6 °F 62.2 °F 29.9 in NW 6 mph 12 mph 61% 0 in 694 W/m2
11:51 76.5 °F 62.4 °F 29.9 in WSW 4.9 mph 15 mph 62% 0 in 693 W/m2
11:56 76.5 °F 62.4 °F 29.9 in West 8.1 mph 10 mph 62% 0 in 647 W/m2
12:01 76.3 °F 62.8 °F 29.9 in West 6.9 mph 11 mph 63% 0 in 663 W/m2
12:06 76.5 °F 62.4 °F 29.9 in NW 6.9 mph 13 mph 62% 0 in 686 W/m2
12:11 76.3 °F 62.8 °F 29.9 in WNW 6.9 mph 10 mph 63% 0 in 645 W/m2
12:16 76.5 °F 62.4 °F 29.9 in NW 10.1 mph 15 mph 62% 0 in 570 W/m2
12:21 75.9 °F 62.8 °F 29.9 in WNW 6 mph 10 mph 64% 0 in 686 W/m2
12:26 76.3 °F 62.8 °F 29.9 in WSW 10.1 mph 15 mph 63% 0 in 643 W/m2
12:31 76.3 °F 62.8 °F 29.9 in WNW 4 mph 12 mph 63% 0 in 682 W/m2
12:36 76.6 °F 63.1 °F 29.9 in West 6 mph 10 mph 63% 0 in 675 W/m2
12:41 76.3 °F 62.8 °F 29.9 in West 2.9 mph 11 mph 63% 0 in 701 W/m2
12:46 76.5 °F 63 °F 29.9 in West 6.9 mph 12 mph 63% 0 in 742 W/m2
12:51 76.6 °F 63.1 °F 29.9 in WSW 4 mph 10 mph 63% 0 in 777 W/m2
12:56 76.8 °F 61.9 °F 29.9 in NW 0.9 mph 9 mph 60% 0 in 777 W/m2
13:01 76.8 °F 62.4 °F 29.9 in NNW 8.1 mph 14 mph 61% 0 in 768 W/m2
13:06 76.6 °F 62.6 °F 29.9 in WNW 4.9 mph 8 mph 62% 0 in 766 W/m2
13:11 76.6 °F 61.7 °F 29.9 in WSW 13 mph 17 mph 60% 0 in 759 W/m2
13:16 76.3 °F 62.2 °F 29.9 in West 6 mph 10 mph 62% 0 in 747 W/m2
13:21 76.6 °F 61.7 °F 29.9 in West 6 mph 17 mph 60% 0 in 733 W/m2
13:26 76.8 °F 61.9 °F 29.9 in WNW 11 mph 14 mph 60% 0 in 788 W/m2
13:31 76.8 °F 60.4 °F 29.9 in SW 6.9 mph 12 mph 57% 0 in 791 W/m2
13:36 76.8 °F 59.4 °F 29.9 in WNW 8.9 mph 14 mph 55% 0 in 828 W/m2
13:41 77.4 °F 59.4 °F 29.9 in NNW 13 mph 13 mph 54% 0 in 828 W/m2
13:46 77.5 °F 59.5 °F 29.9 in WNW 4.9 mph 10 mph 54% 0 in 833 W/m2
13:51 77.7 °F 60.3 °F 29.9 in WSW 4 mph 9 mph 55% 0 in 824 W/m2
13:56 77.9 °F 59.4 °F 29.9 in WSW 16.1 mph 16 mph 53% 0 in 795 W/m2
14:01 77.4 °F 58.8 °F 29.9 in WNW 2.9 mph 11 mph 53% 0 in 803 W/m2
14:06 77.9 °F 59.4 °F 29.9 in West 8.1 mph 10 mph 53% 0 in 819 W/m2
14:11 77.7 °F 59.2 °F 29.9 in West 4 mph 11 mph 53% 0 in 816 W/m2
14:16 77.9 °F 58.3 °F 29.9 in WSW 10.1 mph 11 mph 51% 0 in 810 W/m2
14:21 77.5 °F 54.5 °F 29.9 in NW 6 mph 14 mph 45% 0 in 821 W/m2
14:26 77.7 °F 57 °F 29.9 in WNW 4.9 mph 9 mph 49% 0 in 807 W/m2
14:31 78.3 °F 58.6 °F 29.9 in WSW 4 mph 9 mph 51% 0 in 802 W/m2
14:36 78.6 °F 59 °F 29.9 in West 8.1 mph 11 mph 51% 0 in 803 W/m2
14:41 79.3 °F 59.7 °F 29.9 in WNW 8.9 mph 15 mph 51% 0 in 798 W/m2
14:46 79 °F 59.9 °F 29.9 in NW 4.9 mph 9 mph 52% 0 in 800 W/m2
14:51 78.4 °F 59.9 °F 29.9 in WNW 8.1 mph 15 mph 53% 0 in 805 W/m2
14:56 78.4 °F 60.4 °F 29.9 in North 6 mph 9 mph 54% 0 in 795 W/m2
15:01 78.6 °F 60.1 °F 29.9 in WSW 4.9 mph 14 mph 53% 0 in 810 W/m2
15:06 78.3 °F 60.3 °F 29.9 in West 2 mph 15 mph 54% 0 in 793 W/m2
15:11 78.4 °F 60.4 °F 29.9 in WNW 6.9 mph 12 mph 54% 0 in 824 W/m2
15:16 78.8 °F 60.8 °F 29.9 in WNW 4.9 mph 12 mph 54% 0 in 809 W/m2
15:21 79.3 °F 60.8 °F 29.9 in West 8.1 mph 9 mph 53% 0 in 823 W/m2
15:26 79.3 °F 60.8 °F 29.9 in NNW 10.1 mph 13 mph 53% 0 in 531 W/m2
15:31 78.4 °F 60.4 °F 29.9 in WNW 8.9 mph 11 mph 54% 0 in 97 W/m2
15:36 78.1 °F 61.2 °F 29.9 in NW 6 mph 13 mph 56% 0 in 763 W/m2
15:41 77.5 °F 60.6 °F 29.9 in WNW 8.9 mph 9 mph 56% 0 in 109 W/m2
15:46 77.2 °F 61.3 °F 29.9 in West 8.9 mph 12 mph 58% 0 in 109 W/m2
15:51 77.5 °F 61.5 °F 29.9 in West 8.9 mph 9 mph 58% 0 in 772 W/m2
15:56 78.4 °F 61.9 °F 29.9 in NW 6.9 mph 14 mph 57% 0 in 775 W/m2
16:01 78.6 °F 61.5 °F 29.9 in West 8.1 mph 12 mph 56% 0 in 373 W/m2
16:06 77.7 °F 61.7 °F 29.9 in NW 12.1 mph 13 mph 58% 0 in 125 W/m2
16:11 76.8 °F 61.3 °F 29.9 in West 6 mph 14 mph 59% 0 in 149 W/m2
16:16 76.6 °F 61.7 °F 29.9 in NW 8.9 mph 11 mph 60% 0 in 132 W/m2
16:21 76.5 °F 61 °F 29.9 in WSW 8.1 mph 14 mph 59% 0 in 93 W/m2
16:26 76.3 °F 61 °F 29.9 in NW 4.9 mph 12 mph 59% 0 in 100 W/m2
16:31 76.6 °F 61.2 °F 29.9 in WSW 2.9 mph 11 mph 59% 0 in 100 W/m2
16:36 77.4 °F 61.9 °F 29.9 in WNW 4 mph 10 mph 59% 0 in 689 W/m2
16:41 78.1 °F 62.6 °F 29.9 in West 8.1 mph 9 mph 59% 0 in 668 W/m2
16:46 78.3 °F 62.8 °F 29.9 in WNW 4.9 mph 16 mph 59% 0 in 624 W/m2
16:51 78.4 °F 63 °F 29.9 in WNW 6 mph 13 mph 59% 0 in 603 W/m2
16:56 78.1 °F 62.6 °F 29.9 in West 2.9 mph 14 mph 59% 0 in 594 W/m2
17:01 77.9 °F 63 °F 29.9 in West 6.9 mph 12 mph 60% 0 in 575 W/m2
17:06 77.5 °F 63 °F 29.9 in NW 6 mph 11 mph 61% 0 in 563 W/m2
17:11 77.5 °F 62.6 °F 29.9 in WNW 8.9 mph 18 mph 60% 0 in 564 W/m2
17:16 77.4 °F 62.8 °F 29.9 in WNW 4 mph 14 mph 61% 0 in 534 W/m2
17:21 77.2 °F 62.6 °F 29.9 in West 4 mph 18 mph 61% 0 in 524 W/m2
17:26 77.2 °F 62.6 °F 29.9 in WNW 10.1 mph 16 mph 61% 0 in 508 W/m2
17:31 77 °F 63 °F 29.9 in WNW 6.9 mph 11 mph 62% 0 in 496 W/m2
17:36 77.2 °F 63.1 °F 29.9 in West 6 mph 12 mph 62% 0 in 480 W/m2
17:41 76.8 °F 62.8 °F 29.9 in WSW 4.9 mph 15 mph 62% 0 in 469 W/m2
17:46 76.6 °F 62.6 °F 29.9 in NW 13 mph 16 mph 62% 0 in 459 W/m2
17:51 76.5 °F 63 °F 29.9 in WNW 2.9 mph 16 mph 63% 0 in 443 W/m2
17:56 76.6 °F 62.6 °F 29.9 in NW 8.9 mph 13 mph 62% 0 in 431 W/m2
18:01 76.8 °F 62.8 °F 29.9 in West 11 mph 13 mph 62% 0 in 418 W/m2
18:06 76.8 °F 62.8 °F 29.9 in NW 6.9 mph 10 mph 62% 0 in 399 W/m2
18:11 76.5 °F 63 °F 29.9 in West 11 mph 15 mph 63% 0 in 387 W/m2
18:16 76.6 °F 63.1 °F 29.9 in West 6.9 mph 13 mph 63% 0 in 374 W/m2
18:21 76.3 °F 63.1 °F 29.9 in WNW 10.1 mph 12 mph 64% 0 in 362 W/m2
18:26 76.3 °F 63.1 °F 29.9 in WSW 6.9 mph 8 mph 64% 0 in 352 W/m2
18:31 76.3 °F 63.1 °F 29.9 in WSW 8.9 mph 10 mph 64% 0 in 339 W/m2
18:36 75.7 °F 63.1 °F 29.9 in WSW 4.9 mph 9 mph 65% 0 in 42 W/m2
18:41 75 °F 63.3 °F 29.9 in West 8.1 mph 11 mph 67% 0 in 125 W/m2
18:46 74.7 °F 63.3 °F 29.9 in SW 2.9 mph 7 mph 68% 0 in 49 W/m2
18:51 74.5 °F 63.1 °F 29.9 in WNW 4 mph 11 mph 68% 0 in 44 W/m2
18:56 74.3 °F 63.5 °F 29.9 in WSW 4.9 mph 7 mph 69% 0 in 107 W/m2
19:01 74.8 °F 63.5 °F 29.9 in WNW 6.9 mph 10 mph 68% 0 in 260 W/m2
19:06 75.4 °F 63.7 °F 29.9 in NNW 4 mph 7 mph 67% 0 in 239 W/m2
19:11 75.6 °F 63.3 °F 29.9 in NW 4 mph 11 mph 66% 0 in 214 W/m2
19:16 75.4 °F 62.8 °F 29.9 in WNW 4 mph 10 mph 65% 0 in 42 W/m2
19:21 74.7 °F 62.1 °F 29.9 in West 6 mph 11 mph 65% 0 in 49 W/m2
19:26 74.5 °F 62.4 °F 29.9 in WSW 4 mph 8 mph 66% 0 in 63 W/m2
19:31 74.1 °F 62.4 °F 29.9 in West 10.1 mph 12 mph 67% 0 in 49 W/m2
19:36 73.9 °F 62.2 °F 29.9 in West 4 mph 11 mph 67% 0 in 53 W/m2
19:41 73.9 °F 62.8 °F 29.9 in WNW 4 mph 12 mph 68% 0 in 51 W/m2
19:46 73.9 °F 62.8 °F 29.9 in NW 2.9 mph 7 mph 68% 0 in 42 W/m2
19:51 73.8 °F 62.6 °F 29.9 in West 6 mph 9 mph 68% 0 in 37 W/m2
19:56 73.6 °F 62.4 °F 29.9 in West 0.9 mph 7 mph 68% 0 in 32 W/m2
20:01 73.6 °F 62.8 °F 29.9 in West 2.9 mph 3 mph 69% 0 in 26 W/m2
20:06 73.4 °F 62.6 °F 29.9 in West 6.9 mph 7 mph 69% 0 in 25 W/m2
20:11 73.2 °F 62.8 °F 29.9 in WSW 4 mph 7 mph 70% 0 in 25 W/m2
20:17 73 °F 62.6 °F 29.9 in WNW 8.1 mph 8 mph 70% 0 in 19 W/m2
20:22 73 °F 62.6 °F 30 in WSW 4.9 mph 5 mph 70% 0 in 14 W/m2
20:27 72.9 °F 62.4 °F 30 in West 4 mph 9 mph 70% 0 in 9 W/m2
20:32 72.9 °F 62.4 °F 30 in WSW 4.9 mph 7 mph 70% 0 in 5 W/m2
20:37 72.9 °F 62.4 °F 30 in West 2 mph 4 mph 70% 0 in 5 W/m2
20:42 72.7 °F 62.2 °F 30 in NW 2.9 mph 9 mph 70% 0 in 0 W/m2
20:47 72.7 °F 62.8 °F 30 in West 2 mph 8 mph 71% 0 in 0 W/m2
20:52 72.7 °F 62.8 °F 30 in NW 2.9 mph 6 mph 71% 0 in 0 W/m2
20:57 72.5 °F 62.6 °F 30 in West 4 mph 7 mph 71% 0 in 0 W/m2
21:02 72.5 °F 63 °F 30 in WSW 4.9 mph 7 mph 72% 0 in 0 W/m2
21:07 72.3 °F 62.8 °F 30 in West 4 mph 7 mph 72% 0 in 0 W/m2
21:12 72.3 °F 62.8 °F 30 in West 6.9 mph 9 mph 72% 0 in 0 W/m2
21:17 72.3 °F 62.8 °F 30 in WNW 2.9 mph 7 mph 72% 0 in 0 W/m2
21:22 72.3 °F 62.8 °F 30 in WSW 4.9 mph 5 mph 72% 0 in 0 W/m2
21:27 72.3 °F 62.8 °F 30 in West 2 mph 8 mph 72% 0 in 0 W/m2
21:32 72.1 °F 62.6 °F 30 in WNW 4 mph 10 mph 72% 0 in 0 W/m2
21:37 72.1 °F 63 °F 30 in NW 6 mph 8 mph 73% 0 in 0 W/m2
21:42 72.3 °F 63.1 °F 30 in WNW 2.9 mph 10 mph 73% 0 in 0 W/m2
21:47 72.1 °F 63 °F 30 in WNW 2.9 mph 8 mph 73% 0 in 0 W/m2
21:52 72.1 °F 63 °F 30 in WNW 4.9 mph 10 mph 73% 0 in 0 W/m2
21:57 72.1 °F 63 °F 30 in West 6 mph 8 mph 73% 0 in 0 W/m2
22:02 72 °F 62.8 °F 30 in WSW 2 mph 9 mph 73% 0 in 0 W/m2
22:07 72 °F 62.8 °F 30 in WSW 2.9 mph 9 mph 73% 0 in 0 W/m2
22:12 72 °F 63.1 °F 30 in West 2.9 mph 8 mph 74% 0 in 0 W/m2
22:17 72 °F 63.1 °F 30 in West 2.9 mph 9 mph 74% 0 in 0 W/m2
22:22 71.8 °F 63 °F 30 in West 2.9 mph 9 mph 74% 0 in 0 W/m2
22:27 71.6 °F 63 °F 30 in West 8.9 mph 9 mph 74% 0 in 0 W/m2
22:32 71.4 °F 62.8 °F 30 in West 6 mph 7 mph 74% 0 in 0 W/m2
22:37 71.2 °F 63 °F 30 in WNW 8.1 mph 11 mph 75% 0 in 0 W/m2
22:42 71.1 °F 62.8 °F 30 in West 2.9 mph 10 mph 75% 0 in 0 W/m2
22:47 70.9 °F 63 °F 30 in West 4 mph 10 mph 76% 0 in 0 W/m2
22:52 70.9 °F 63 °F 30 in West 6.9 mph 12 mph 76% 0 in 0 W/m2
22:57 70.9 °F 63 °F 30 in SW 6 mph 9 mph 76% 0 in 0 W/m2
23:02 70.9 °F 63 °F 30 in West 6 mph 11 mph 76% 0 in 0 W/m2
23:07 70.7 °F 62.8 °F 30 in WSW 8.9 mph 10 mph 76% 0 in 0 W/m2
23:12 70.7 °F 62.8 °F 30 in NW 8.1 mph 11 mph 76% 0 in 0 W/m2
23:17 70.5 °F 62.6 °F 30 in WNW 4.9 mph 10 mph 76% 0 in 0 W/m2
23:22 70.5 °F 62.6 °F 30 in West 2.9 mph 8 mph 76% 0 in 0 W/m2
23:27 70.5 °F 62.6 °F 30 in WNW 4 mph 10 mph 76% 0 in 0 W/m2
23:32 70.3 °F 62.4 °F 30 in West 4 mph 10 mph 76% 0 in 0 W/m2
23:37 70.3 °F 62.4 °F 30 in NW 4 mph 10 mph 76% 0 in 0 W/m2
23:42 70.3 °F 62.4 °F 30 in WSW 4.9 mph 8 mph 76% 0 in 0 W/m2
23:47 70.3 °F 62.8 °F 30 in NW 2.9 mph 10 mph 77% 0 in 0 W/m2
23:52 70.2 °F 62.6 °F 30 in WNW 6 mph 9 mph 77% 0 in 0 W/m2
23:57 70.2 °F 62.6 °F 30 in NW 4 mph 9 mph 77% 0 in 0 W/m2
Juneau County Weather
Compliments of Weather Underground - 4 mb